"Time","Value","Approval","myLocation"
"2023-05-06 00:00",23.5108179294398,"Approved","OW200"
"2023-05-06 01:00",23.5128146238732,"Approved","OW200"
"2023-05-06 02:00",23.5138113183066,"Approved","OW200"
"2023-05-06 03:00",23.51580801274,"Approved","OW200"
"2023-05-06 04:00",23.5168047071734,"Approved","OW200"
"2023-05-06 05:00",23.5178014016068,"Approved","OW200"
"2023-05-06 06:00",23.5157980960402,"Approved","OW200"
"2023-05-06 07:00",23.5177947904735,"Approved","OW200"
"2023-05-06 08:00",23.5187914849069,"Approved","OW200"
"2023-05-06 09:00",23.5217881793403,"Approved","OW200"
"2023-05-06 10:00",23.5187848737737,"Approved","OW200"
"2023-05-06 11:00",23.5187815682071,"Approved","OW200"
"2023-05-06 12:00",23.5187782626405,"Approved","OW200"
"2023-05-06 13:00",23.5167749570739,"Approved","OW200"
"2023-05-06 14:00",23.5197716515072,"Approved","OW200"
"2023-05-06 15:00",23.5217683459406,"Approved","OW200"
"2023-05-06 16:00",23.520765040374,"Approved","OW200"
"2023-05-06 17:00",23.5207617348074,"Approved","OW200"
"2023-05-06 18:00",23.5227584292408,"Approved","OW200"
"2023-05-06 19:00",23.5217551236742,"Approved","OW200"
"2023-05-06 20:00",23.5207518181075,"Approved","OW200"
"2023-05-06 21:00",23.5207485125409,"Approved","OW200"
"2023-05-06 22:00",23.5217452069743,"Approved","OW200"
"2023-05-06 23:00",23.5207419014077,"Approved","OW200"
"2023-05-07 00:00",23.5217385958411,"Approved","OW200"
"2023-05-07 01:00",23.5217352902745,"Approved","OW200"
"2023-05-07 02:00",23.5207319847079,"Approved","OW200"
"2023-05-07 03:00",23.5227286791412,"Approved","OW200"
"2023-05-07 04:00",23.5217253735746,"Approved","OW200"
"2023-05-07 05:00",23.521722068008,"Approved","OW200"
"2023-05-07 06:00",23.5227187624414,"Approved","OW200"
"2023-05-07 07:00",23.5247154568748,"Approved","OW200"
"2023-05-07 08:00",23.5237121513082,"Approved","OW200"
"2023-05-07 09:00",23.5237088457416,"Approved","OW200"
"2023-05-07 10:00",23.5227055401749,"Approved","OW200"
"2023-05-07 11:00",23.5237022346083,"Approved","OW200"
"2023-05-07 12:00",23.5236989290417,"Approved","OW200"
"2023-05-07 13:00",23.5256956234751,"Approved","OW200"
"2023-05-07 14:00",23.5266923179085,"Approved","OW200"
"2023-05-07 15:00",23.5266890123419,"Approved","OW200"
"2023-05-07 16:00",23.5276857067753,"Approved","OW200"
"2023-05-07 17:00",23.5276824012086,"Approved","OW200"
"2023-05-07 18:00",23.528679095642,"Approved","OW200"
"2023-05-07 19:00",23.5286757900754,"Approved","OW200"
"2023-05-07 20:00",23.5276724845088,"Approved","OW200"
"2023-05-07 21:00",23.5286691789422,"Approved","OW200"
"2023-05-07 22:00",23.5296658733756,"Approved","OW200"
"2023-05-07 23:00",23.529662567809,"Approved","OW200"
"2023-05-08 00:00",23.5296592622423,"Approved","OW200"
"2023-05-08 01:00",23.5296559566757,"Approved","OW200"
"2023-05-08 02:00",23.5306526511091,"Approved","OW200"
"2023-05-08 03:00",23.5296493455425,"Approved","OW200"
"2023-05-08 04:00",23.5306460399759,"Approved","OW200"
"2023-05-08 05:00",23.5316427344093,"Approved","OW200"
"2023-05-08 06:00",23.5326394288427,"Approved","OW200"
"2023-05-08 07:00",23.532636123276,"Approved","OW200"
"2023-05-08 08:00",23.5326328177094,"Approved","OW200"
"2023-05-08 09:00",23.5326295121428,"Approved","OW200"
"2023-05-08 10:00",23.5336262065762,"Approved","OW200"
"2023-05-08 11:00",23.5336229010096,"Approved","OW200"
"2023-05-08 12:00",23.534619595443,"Approved","OW200"
"2023-05-08 13:00",23.5356162898764,"Approved","OW200"
"2023-05-08 14:00",23.5366129843097,"Approved","OW200"
"2023-05-08 15:00",23.5356096787431,"Approved","OW200"
"2023-05-08 16:00",23.5356063731765,"Approved","OW200"
"2023-05-08 17:00",23.5366030676099,"Approved","OW200"
"2023-05-08 18:00",23.5345997620433,"Approved","OW200"
"2023-05-08 19:00",23.5345964564767,"Approved","OW200"
"2023-05-08 20:00",23.5345931509101,"Approved","OW200"
"2023-05-08 21:00",23.5355898453434,"Approved","OW200"
"2023-05-08 22:00",23.5365865397768,"Approved","OW200"
"2023-05-08 23:00",23.5365832342102,"Approved","OW200"
"2023-05-09 00:00",23.5375799286436,"Approved","OW200"
"2023-05-09 01:00",23.538576623077,"Approved","OW200"
"2023-05-09 02:00",23.5365733175104,"Approved","OW200"
"2023-05-09 03:00",23.5365700119437,"Approved","OW200"
"2023-05-09 04:00",23.5375667063771,"Approved","OW200"
"2023-05-09 05:00",23.5395634008105,"Approved","OW200"
"2023-05-09 06:00",23.5415600952439,"Approved","OW200"
"2023-05-09 07:00",23.5415567896773,"Approved","OW200"
"2023-05-09 08:00",23.5415534841107,"Approved","OW200"
"2023-05-09 09:00",23.5415501785441,"Approved","OW200"
"2023-05-09 10:00",23.5415468729774,"Approved","OW200"
"2023-05-09 11:00",23.5425435674108,"Approved","OW200"
"2023-05-09 12:00",23.5425402618442,"Approved","OW200"
"2023-05-09 13:00",23.5425369562776,"Approved","OW200"
"2023-05-09 14:00",23.543533650711,"Approved","OW200"
"2023-05-09 15:00",23.5425303451444,"Approved","OW200"
"2023-05-09 16:00",23.5435270395778,"Approved","OW200"
"2023-05-09 17:00",23.5415237340111,"Approved","OW200"
"2023-05-09 18:00",23.5405204284445,"Approved","OW200"
"2023-05-09 19:00",23.5425171228779,"Approved","OW200"
"2023-05-09 20:00",23.5415138173113,"Approved","OW200"
"2023-05-09 21:00",23.5415105117447,"Approved","OW200"
"2023-05-09 22:00",23.5425072061781,"Approved","OW200"
"2023-05-09 23:00",23.5425039006115,"Approved","OW200"
"2023-05-10 00:00",23.5435005950448,"Approved","OW200"
"2023-05-10 01:00",23.5434972894782,"Approved","OW200"
"2023-05-10 02:00",23.5434939839116,"Approved","OW200"
"2023-05-10 03:00",23.546490678345,"Approved","OW200"
"2023-05-10 04:00",23.5464873727784,"Approved","OW200"
"2023-05-10 05:00",23.5474840672118,"Approved","OW200"
"2023-05-10 06:00",23.5494807616452,"Approved","OW200"
"2023-05-10 07:00",23.5484774560785,"Approved","OW200"
"2023-05-10 08:00",23.5484741505119,"Approved","OW200"
"2023-05-10 09:00",23.5494708449453,"Approved","OW200"
"2023-05-10 10:00",23.5494675393787,"Approved","OW200"
"2023-05-10 11:00",23.5494642338121,"Approved","OW200"
"2023-05-10 12:00",23.5504609282455,"Approved","OW200"
"2023-05-10 13:00",23.5494576226789,"Approved","OW200"
"2023-05-10 14:00",23.5484543171122,"Approved","OW200"
"2023-05-10 15:00",23.5474510115456,"Approved","OW200"
"2023-05-10 16:00",23.547447705979,"Approved","OW200"
"2023-05-10 17:00",23.5464444004124,"Approved","OW200"
"2023-05-10 18:00",23.5474410948458,"Approved","OW200"
"2023-05-10 19:00",23.5474377892792,"Approved","OW200"
"2023-05-10 20:00",23.5464344837125,"Approved","OW200"
"2023-05-10 21:00",23.5464311781459,"Approved","OW200"
"2023-05-10 22:00",23.5484278725793,"Approved","OW200"
"2023-05-10 23:00",23.5484245670127,"Approved","OW200"
"2023-05-11 00:00",23.5494212614461,"Approved","OW200"
"2023-05-11 01:00",23.5504179558795,"Approved","OW200"
"2023-05-11 02:00",23.5504146503129,"Approved","OW200"
"2023-05-11 03:00",23.5514113447462,"Approved","OW200"
"2023-05-11 04:00",23.5524080391796,"Approved","OW200"
"2023-05-11 05:00",23.554404733613,"Approved","OW200"
"2023-05-11 06:00",23.5564014280464,"Approved","OW200"
"2023-05-11 07:00",23.5553981224798,"Approved","OW200"
"2023-05-11 08:00",23.5563948169132,"Approved","OW200"
"2023-05-11 09:00",23.5553915113466,"Approved","OW200"
"2023-05-11 10:00",23.5563882057799,"Approved","OW200"
"2023-05-11 11:00",23.5563849002133,"Approved","OW200"
"2023-05-11 12:00",23.5573815946467,"Approved","OW200"
"2023-05-11 13:00",23.5573782890801,"Approved","OW200"
"2023-05-11 14:00",23.5573749835135,"Approved","OW200"
"2023-05-11 15:00",23.5583716779469,"Approved","OW200"
"2023-05-11 16:00",23.5583683723803,"Approved","OW200"
"2023-05-11 17:00",23.5573650668136,"Approved","OW200"
"2023-05-11 18:00",23.557361761247,"Approved","OW200"
"2023-05-11 19:00",23.5583584556804,"Approved","OW200"
"2023-05-11 20:00",23.5583551501138,"Approved","OW200"
"2023-05-11 21:00",23.5583518445472,"Approved","OW200"
"2023-05-11 22:00",23.5603485389806,"Approved","OW200"
"2023-05-11 23:00",23.561345233414,"Approved","OW200"
"2023-05-12 00:00",23.5583419278473,"Approved","OW200"
"2023-05-12 01:00",23.5603386222807,"Approved","OW200"
"2023-05-12 02:00",23.5603353167141,"Approved","OW200"
"2023-05-12 03:00",23.5593320111475,"Approved","OW200"
"2023-05-12 04:00",23.5603287055809,"Approved","OW200"
"2023-05-12 05:00",23.5613254000143,"Approved","OW200"
"2023-05-12 06:00",23.5613220944477,"Approved","OW200"
"2023-05-12 07:00",23.561318788881,"Approved","OW200"
"2023-05-12 08:00",23.5613154833144,"Approved","OW200"
"2023-05-12 09:00",23.5613121777478,"Approved","OW200"
"2023-05-12 10:00",23.5623088721812,"Approved","OW200"
"2023-05-12 11:00",23.5643055666146,"Approved","OW200"
"2023-05-12 12:00",23.564302261048,"Approved","OW200"
"2023-05-12 13:00",23.5652989554814,"Approved","OW200"
"2023-05-12 14:00",23.5652956499147,"Approved","OW200"
"2023-05-12 15:00",23.5652923443481,"Approved","OW200"
"2023-05-12 16:00",23.5672890387815,"Approved","OW200"
"2023-05-12 17:00",23.5662857332149,"Approved","OW200"
"2023-05-12 18:00",23.5672824276483,"Approved","OW200"
"2023-05-12 19:00",23.5672791220817,"Approved","OW200"
"2023-05-12 20:00",23.567275816515,"Approved","OW200"
"2023-05-12 21:00",23.5662725109484,"Approved","OW200"
"2023-05-12 22:00",23.5692692053818,"Approved","OW200"
"2023-05-12 23:00",23.5692658998152,"Approved","OW200"
"2023-05-13 00:00",23.5702625942486,"Approved","OW200"
"2023-05-13 01:00",23.568259288682,"Approved","OW200"
"2023-05-13 02:00",23.5702559831154,"Approved","OW200"
"2023-05-13 03:00",23.5732526775487,"Approved","OW200"
"2023-05-13 04:00",23.5732493719821,"Approved","OW200"
"2023-05-13 05:00",23.5752460664155,"Approved","OW200"
"2023-05-13 06:00",23.5752427608489,"Approved","OW200"
"2023-05-13 07:00",23.5722394552823,"Approved","OW200"
"2023-05-13 08:00",23.5742361497157,"Approved","OW200"
"2023-05-13 09:00",23.5732328441491,"Approved","OW200"
"2023-05-13 10:00",23.5742295385824,"Approved","OW200"
"2023-05-13 11:00",23.5752262330158,"Approved","OW200"
"2023-05-13 12:00",23.5742229274492,"Approved","OW200"
"2023-05-13 13:00",23.5762196218826,"Approved","OW200"
"2023-05-13 14:00",23.576216316316,"Approved","OW200"
"2023-05-13 15:00",23.5762130107494,"Approved","OW200"
"2023-05-13 16:00",23.5762097051828,"Approved","OW200"
"2023-05-13 17:00",23.5782063996161,"Approved","OW200"
"2023-05-13 18:00",23.5772030940495,"Approved","OW200"
"2023-05-13 19:00",23.5761997884829,"Approved","OW200"
"2023-05-13 20:00",23.5771964829163,"Approved","OW200"
"2023-05-13 21:00",23.5781931773497,"Approved","OW200"
"2023-05-13 22:00",23.5781898717831,"Approved","OW200"
"2023-05-13 23:00",23.5771865662165,"Approved","OW200"
"2023-05-14 00:00",23.5771832606498,"Approved","OW200"
"2023-05-14 01:00",23.5781799550832,"Approved","OW200"
"2023-05-14 02:00",23.5801766495166,"Approved","OW200"
"2023-05-14 03:00",23.57917334395,"Approved","OW200"
"2023-05-14 04:00",23.5821700383834,"Approved","OW200"
"2023-05-14 05:00",23.5821667328168,"Approved","OW200"
"2023-05-14 06:00",23.5831634272502,"Approved","OW200"
"2023-05-14 07:00",23.5821601216835,"Approved","OW200"
"2023-05-14 08:00",23.5821568161169,"Approved","OW200"
"2023-05-14 09:00",23.5831535105503,"Approved","OW200"
"2023-05-14 10:00",23.5831502049837,"Approved","OW200"
"2023-05-14 11:00",23.5811468994171,"Approved","OW200"
"2023-05-14 12:00",23.5811435938505,"Approved","OW200"
"2023-05-14 13:00",23.5831402882839,"Approved","OW200"
"2023-05-14 14:00",23.5851369827172,"Approved","OW200"
"2023-05-14 15:00",23.5851336771506,"Approved","OW200"
"2023-05-14 16:00",23.584130371584,"Approved","OW200"
"2023-05-14 17:00",23.5831270660174,"Approved","OW200"
"2023-05-14 18:00",23.5831237604508,"Approved","OW200"
"2023-05-14 19:00",23.5831204548842,"Approved","OW200"
"2023-05-14 20:00",23.5831171493176,"Approved","OW200"
"2023-05-14 21:00",23.5831138437509,"Approved","OW200"
"2023-05-14 22:00",23.5831105381843,"Approved","OW200"
"2023-05-14 23:00",23.5831072326177,"Approved","OW200"
"2023-05-15 00:00",23.5831039270511,"Approved","OW200"
"2023-05-15 01:00",23.5841006214845,"Approved","OW200"
"2023-05-15 02:00",23.5840973159179,"Approved","OW200"
"2023-05-15 03:00",23.5840940103512,"Approved","OW200"
"2023-05-15 04:00",23.5850907047846,"Approved","OW200"
"2023-05-15 05:00",23.585087399218,"Approved","OW200"
"2023-05-15 06:00",23.5860840936514,"Approved","OW200"
"2023-05-15 07:00",23.5880807880848,"Approved","OW200"
"2023-05-15 08:00",23.5870774825182,"Approved","OW200"
"2023-05-15 09:00",23.5870741769516,"Approved","OW200"
"2023-05-15 10:00",23.5870708713849,"Approved","OW200"
"2023-05-15 11:00",23.5880675658183,"Approved","OW200"
"2023-05-15 12:00",23.5890642602517,"Approved","OW200"
"2023-05-15 13:00",23.5910609546851,"Approved","OW200"
"2023-05-15 14:00",23.5910576491185,"Approved","OW200"
"2023-05-15 15:00",23.5900543435519,"Approved","OW200"
"2023-05-15 16:00",23.5900510379853,"Approved","OW200"
"2023-05-15 17:00",23.5880477324186,"Approved","OW200"
"2023-05-15 18:00",23.589044426852,"Approved","OW200"
"2023-05-15 19:00",23.5900411212854,"Approved","OW200"
"2023-05-15 20:00",23.5890378157188,"Approved","OW200"
"2023-05-15 21:00",23.5890345101522,"Approved","OW200"
"2023-05-15 22:00",23.5900312045856,"Approved","OW200"
"2023-05-15 23:00",23.590027899019,"Approved","OW200"
"2023-05-16 00:00",23.5910245934523,"Approved","OW200"
"2023-05-16 01:00",23.5910212878857,"Approved","OW200"
"2023-05-16 02:00",23.5910179823191,"Approved","OW200"
"2023-05-16 03:00",23.5920146767525,"Approved","OW200"
"2023-05-16 04:00",23.5930113711859,"Approved","OW200"
"2023-05-16 05:00",23.5960080656193,"Approved","OW200"
"2023-05-16 06:00",23.5960047600527,"Approved","OW200"
"2023-05-16 07:00",23.596001454486,"Approved","OW200"
"2023-05-16 08:00",23.5969981489194,"Approved","OW200"
"2023-05-16 09:00",23.5979948433528,"Approved","OW200"
"2023-05-16 10:00",23.5979915377862,"Approved","OW200"
"2023-05-16 11:00",23.5969882322196,"Approved","OW200"
"2023-05-16 12:00",23.596984926653,"Approved","OW200"
"2023-05-16 13:00",23.5979816210864,"Approved","OW200"
"2023-05-16 14:00",23.5979783155197,"Approved","OW200"
"2023-05-16 15:00",23.5979750099531,"Approved","OW200"
"2023-05-16 16:00",23.5969717043865,"Approved","OW200"
"2023-05-16 17:00",23.5969683988199,"Approved","OW200"
"2023-05-16 18:00",23.5959650932533,"Approved","OW200"
"2023-05-16 19:00",23.5959617876867,"Approved","OW200"
"2023-05-16 20:00",23.5949584821201,"Approved","OW200"
"2023-05-16 21:00",23.5959551765534,"Approved","OW200"
"2023-05-16 22:00",23.5959518709868,"Approved","OW200"
"2023-05-16 23:00",23.5969485654202,"Approved","OW200"
"2023-05-17 00:00",23.5959452598536,"Approved","OW200"
"2023-05-17 01:00",23.597941954287,"Approved","OW200"
"2023-05-17 02:00",23.5989386487204,"Approved","OW200"
"2023-05-17 03:00",23.5999353431537,"Approved","OW200"
"2023-05-17 04:00",23.6009320375871,"Approved","OW200"
"2023-05-17 05:00",23.6029287320205,"Approved","OW200"
"2023-05-17 06:00",23.6049254264539,"Approved","OW200"
"2023-05-17 07:00",23.6049221208873,"Approved","OW200"
"2023-05-17 08:00",23.6039188153207,"Approved","OW200"
"2023-05-17 09:00",23.6039155097541,"Approved","OW200"
"2023-05-17 10:00",23.6039122041874,"Approved","OW200"
"2023-05-17 11:00",23.6049088986208,"Approved","OW200"
"2023-05-17 12:00",23.6059055930542,"Approved","OW200"
"2023-05-17 13:00",23.6059022874876,"Approved","OW200"
"2023-05-17 14:00",23.604898981921,"Approved","OW200"
"2023-05-17 15:00",23.6048956763544,"Approved","OW200"
"2023-05-17 16:00",23.6038923707878,"Approved","OW200"
"2023-05-17 17:00",23.6038890652211,"Approved","OW200"
"2023-05-17 18:00",23.6018857596545,"Approved","OW200"
"2023-05-17 19:00",23.6018824540879,"Approved","OW200"
"2023-05-17 20:00",23.6018791485213,"Approved","OW200"
"2023-05-17 21:00",23.6028758429547,"Approved","OW200"
"2023-05-17 22:00",23.6038725373881,"Approved","OW200"
"2023-05-17 23:00",23.6028692318215,"Approved","OW200"
"2023-05-18 00:00",23.6048659262548,"Approved","OW200"
"2023-05-18 01:00",23.6048626206882,"Approved","OW200"
"2023-05-18 02:00",23.6058593151216,"Approved","OW200"
"2023-05-18 03:00",23.605856009555,"Approved","OW200"
"2023-05-18 04:00",23.6078527039884,"Approved","OW200"
"2023-05-18 05:00",23.6088493984218,"Approved","OW200"
"2023-05-18 06:00",23.6108460928552,"Approved","OW200"
"2023-05-18 07:00",23.6108427872885,"Approved","OW200"
"2023-05-18 08:00",23.6108394817219,"Approved","OW200"
"2023-05-18 09:00",23.6108361761553,"Approved","OW200"
"2023-05-18 10:00",23.6098328705887,"Approved","OW200"
"2023-05-18 11:00",23.6108295650221,"Approved","OW200"
"2023-05-18 12:00",23.6108262594555,"Approved","OW200"
"2023-05-18 13:00",23.6098229538889,"Approved","OW200"
"2023-05-18 14:00",23.6108196483222,"Approved","OW200"
"2023-05-18 15:00",23.6108163427556,"Approved","OW200"
"2023-05-18 16:00",23.609813037189,"Approved","OW200"
"2023-05-18 17:00",23.6098097316224,"Approved","OW200"
"2023-05-18 18:00",23.6088064260558,"Approved","OW200"
"2023-05-18 19:00",23.6088031204892,"Approved","OW200"
"2023-05-18 20:00",23.6077998149226,"Approved","OW200"
"2023-05-18 21:00",23.6087965093559,"Approved","OW200"
"2023-05-18 22:00",23.6087932037893,"Approved","OW200"
"2023-05-18 23:00",23.6097898982227,"Approved","OW200"
"2023-05-19 00:00",23.6107865926561,"Approved","OW200"
"2023-05-19 01:00",23.6107832870895,"Approved","OW200"
"2023-05-19 02:00",23.6117799815229,"Approved","OW200"
"2023-05-19 03:00",23.6127766759562,"Approved","OW200"
"2023-05-19 04:00",23.6137733703896,"Approved","OW200"
"2023-05-19 05:00",23.615770064823,"Approved","OW200"
"2023-05-19 06:00",23.6177667592564,"Approved","OW200"
"2023-05-19 07:00",23.6187634536898,"Approved","OW200"
"2023-05-19 08:00",23.6197601481232,"Approved","OW200"
"2023-05-19 09:00",23.6197568425566,"Approved","OW200"
"2023-05-19 10:00",23.6197535369899,"Approved","OW200"
"2023-05-19 11:00",23.6207502314233,"Approved","OW200"
"2023-05-19 12:00",23.6207469258567,"Approved","OW200"
"2023-05-19 13:00",23.6207436202901,"Approved","OW200"
"2023-05-19 14:00",23.6237403147235,"Approved","OW200"
"2023-05-19 15:00",23.6217370091569,"Approved","OW200"
"2023-05-19 16:00",23.6207337035903,"Approved","OW200"
"2023-05-19 17:00",23.6207303980236,"Approved","OW200"
"2023-05-19 18:00",23.621727092457,"Approved","OW200"
"2023-05-19 19:00",23.6227237868904,"Approved","OW200"
"2023-05-19 20:00",23.6207204813238,"Approved","OW200"
"2023-05-19 21:00",23.6227171757572,"Approved","OW200"
"2023-05-19 22:00",23.6217138701906,"Approved","OW200"
"2023-05-19 23:00",23.622710564624,"Approved","OW200"
"2023-05-20 00:00",23.6227072590573,"Approved","OW200"
"2023-05-20 01:00",23.6237039534907,"Approved","OW200"
"2023-05-20 02:00",23.6257006479241,"Approved","OW200"
"2023-05-20 03:00",23.6256973423575,"Approved","OW200"
"2023-05-20 04:00",23.6266940367909,"Approved","OW200"
"2023-05-20 05:00",23.6276907312243,"Approved","OW200"
"2023-05-20 06:00",23.6286874256577,"Approved","OW200"
"2023-05-20 07:00",23.627684120091,"Approved","OW200"
"2023-05-20 08:00",23.6286808145244,"Approved","OW200"
"2023-05-20 09:00",23.6276775089578,"Approved","OW200"
"2023-05-20 10:00",23.6286742033912,"Approved","OW200"
"2023-05-20 11:00",23.6276708978246,"Approved","OW200"
"2023-05-20 12:00",23.628667592258,"Approved","OW200"
"2023-05-20 13:00",23.6286642866914,"Approved","OW200"
"2023-05-20 14:00",23.6286609811247,"Approved","OW200"
"2023-05-20 15:00",23.6286576755581,"Approved","OW200"
"2023-05-20 16:00",23.6286543699915,"Approved","OW200"
"2023-05-20 17:00",23.6276510644249,"Approved","OW200"
"2023-05-20 18:00",23.6276477588583,"Approved","OW200"
"2023-05-20 19:00",23.6276444532917,"Approved","OW200"
"2023-05-20 20:00",23.6276411477251,"Approved","OW200"
"2023-05-20 21:00",23.6276378421584,"Approved","OW200"
"2023-05-20 22:00",23.6286345365918,"Approved","OW200"
"2023-05-20 23:00",23.6286312310252,"Approved","OW200"
"2023-05-21 00:00",23.6286279254586,"Approved","OW200"
"2023-05-21 01:00",23.627624619892,"Approved","OW200"
"2023-05-21 02:00",23.6296213143254,"Approved","OW200"
"2023-05-21 03:00",23.6296180087588,"Approved","OW200"
"2023-05-21 04:00",23.6306147031921,"Approved","OW200"
"2023-05-21 05:00",23.6316113976255,"Approved","OW200"
"2023-05-21 06:00",23.6336080920589,"Approved","OW200"
"2023-05-21 07:00",23.6366047864923,"Approved","OW200"
"2023-05-21 08:00",23.6366014809257,"Approved","OW200"
"2023-05-21 09:00",23.6365981753591,"Approved","OW200"
"2023-05-21 10:00",23.6345948697924,"Approved","OW200"
"2023-05-21 11:00",23.6345915642258,"Approved","OW200"
"2023-05-21 12:00",23.6355882586592,"Approved","OW200"
"2023-05-21 13:00",23.6365849530926,"Approved","OW200"
"2023-05-21 14:00",23.635581647526,"Approved","OW200"
"2023-05-21 15:00",23.6355783419594,"Approved","OW200"
"2023-05-21 16:00",23.6365750363928,"Approved","OW200"
"2023-05-21 17:00",23.6355717308261,"Approved","OW200"
"2023-05-21 18:00",23.6345684252595,"Approved","OW200"
"2023-05-21 19:00",23.6355651196929,"Approved","OW200"
"2023-05-21 20:00",23.6355618141263,"Approved","OW200"
"2023-05-21 21:00",23.6355585085597,"Approved","OW200"
"2023-05-21 22:00",23.6365552029931,"Approved","OW200"
"2023-05-21 23:00",23.6365518974265,"Approved","OW200"
"2023-05-22 00:00",23.6365485918598,"Approved","OW200"
"2023-05-22 01:00",23.6385452862932,"Approved","OW200"
"2023-05-22 02:00",23.6385419807266,"Approved","OW200"
"2023-05-22 03:00",23.64053867516,"Approved","OW200"
"2023-05-22 04:00",23.6425353695934,"Approved","OW200"
"2023-05-22 05:00",23.6425320640268,"Approved","OW200"
"2023-05-22 06:00",23.6425287584602,"Approved","OW200"
"2023-05-22 07:00",23.6435254528935,"Approved","OW200"
"2023-05-22 08:00",23.6445221473269,"Approved","OW200"
"2023-05-22 09:00",23.6435188417603,"Approved","OW200"
"2023-05-22 10:00",23.6435155361937,"Approved","OW200"
"2023-05-22 11:00",23.6455122306271,"Approved","OW200"
"2023-05-22 12:00",23.6435089250605,"Approved","OW200"
"2023-05-22 13:00",23.6435056194939,"Approved","OW200"
"2023-05-22 14:00",23.6445023139272,"Approved","OW200"
"2023-05-22 15:00",23.6454990083606,"Approved","OW200"
"2023-05-22 16:00",23.644495702794,"Approved","OW200"
"2023-05-22 17:00",23.6434923972274,"Approved","OW200"
"2023-05-22 18:00",23.6424890916608,"Approved","OW200"
"2023-05-22 19:00",23.6424857860942,"Approved","OW200"
"2023-05-22 20:00",23.6434824805276,"Approved","OW200"
"2023-05-22 21:00",23.6434791749609,"Approved","OW200"
"2023-05-22 22:00",23.6434758693943,"Approved","OW200"
"2023-05-22 23:00",23.6434725638277,"Approved","OW200"
"2023-05-23 00:00",23.6444692582611,"Approved","OW200"
"2023-05-23 01:00",23.6454659526945,"Approved","OW200"
"2023-05-23 02:00",23.6454626471279,"Approved","OW200"
"2023-05-23 03:00",23.6464593415613,"Approved","OW200"
"2023-05-23 04:00",23.6474560359946,"Approved","OW200"
"2023-05-23 05:00",23.649452730428,"Approved","OW200"
"2023-05-23 06:00",23.6504494248614,"Approved","OW200"
"2023-05-23 07:00",23.6514461192948,"Approved","OW200"
"2023-05-23 08:00",23.6504428137282,"Approved","OW200"
"2023-05-23 09:00",23.6514395081616,"Approved","OW200"
"2023-05-23 10:00",23.6514362025949,"Approved","OW200"
"2023-05-23 11:00",23.6514328970283,"Approved","OW200"
"2023-05-23 12:00",23.6504295914617,"Approved","OW200"
"2023-05-23 13:00",23.6514262858951,"Approved","OW200"
"2023-05-23 14:00",23.6504229803285,"Approved","OW200"
"2023-05-23 15:00",23.6514196747619,"Approved","OW200"
"2023-05-23 16:00",23.6504163691953,"Approved","OW200"
"2023-05-23 17:00",23.6484130636286,"Approved","OW200"
"2023-05-23 18:00",23.647409758062,"Approved","OW200"
"2023-05-23 19:00",23.6484064524954,"Approved","OW200"